SCP
-0 -0 -0 -0 -0 -0 -0 -0 0 0 0 -0 0 0 0 0 0 0 0 0 0 0 0 0 0 0 0 0 0 0 0 0 0 0 0 0 0 0 0 0 0 0 0 0 0 0 0 0 0
-0 -0 -0 -0 -0 -0 -0 -0 0 0 -0 -0 0 0 0 0 0 0 0 0 0 0 0 0 0 0 0 0 0 0 0 0 0 0 0 0 0 0 0 0 0 0 0 0 0 0 0 0 0
0 -0 -0 -0 -0 -0 -0 -0 -0 -0 -0 -0 0 0 0 0 0 0 0 0 0 0 0 0 0 0 0 0 0 0 0 0 0 0 0 0 0 0 0 0 0 0 0 0 0 0 0 0 0
0 -0 -0 0 0 -0 -0 -0 -0 -0 -0 -0 0 0 0 0 0 0 0 0 0 0 0 0 0 0 0 0 0 0 0 0 0 0 0 0 0 0 0 0 0 0 0 0 0 0 0 0 0
0 0 0 0 0 -0 -0 -0 -0 -0 -0 -0 0 0 0 -0 0 0 0 0 0 0 0 0 0 0 0 0 0 0 0 0 0 0 0 0 0 0 0 0 0 0 0 0 0 0 0 0 0
0 0 0 0 0 0 -0 -0 -0 -0 -0 0 0 0 0 -0 0 0 0 0 0 0 0 0 0 0 0 0 0 0 0 0 0 0 0 0 0 0 0 0 0 0 0 0 0 0 0 0 0
0 -0 0 0 0 0 0 0 0 0 0 0 0 -0 -0 -0 0 0 0 0 0 0 0 0 0 0 0 0 0 0 0 0 0 0 0 0 0 0 0 0 0 0 0 0 0 0 0 0 0
-0 -0 -0 -0 0 -0 0 0 0 0 0 0 0 0 0 0 0 0 0 0 0 0 0 0 0 0 0 0 0 0 0 0 0 0 0 0 0 0 0 0 0 0 0 0 0 0 0 0 0
-0 -0 -0 -0 -0 -0 0 0 0 0 0 0 0 0 0 0 0 0 0 0 0 0 0 0 0 0 0 0 0 0 0 0 0 0 0 0 0 0 0 0 0 0 0 0 0 0 0 0 0
-0 -0 -0 0 0 0 0 0 0 0 0 0 0 0 0 0 0 0 0 0 0 0 0 0 0 0 0 0 0 0 0 0 0 0 0 0 0 0 0 0 0 0 0 0 0 0 0 0 0
0 0 0 0 0 0 0 0 0 0 0 0 0 0 0 0 0 0 0 0 0 0 0 0 0 0 0 0 0 0 0 0 0 0 0 0 0 0 0 0 0 0 0 0 0 0 0 0 0
0 0 0 0 0 0 0 0 0 0 0 0 0 0 0 0 0 0 0 0 0 0 0 0 0 0 0 0 0 0 0 0 0 0 0 0 0 0 0 0 0 0 0 0 0 0 0 0 0
0 0 0 0 0 0 0 0 0 0 0 0 0 0 0 0 0 0 0 0 0 0 0 0 0 0 0 0 0 0 0 0 0 0 0 0 0 0 0 0 0 0 0 0 0 0 0 0 0
0 0 0 0 0 0 0 0 0 0 0 0 0 0 0 0 0 0 0 0 0 0 0 0 0 0 0 0 0 0 0 0 0 0 0 0 0 0 0 0 0 0 0 0 0 0 0 0 0
0 0 0 0 0 0 0 0 0 0 0 0 0 0 0 0 0 0 0 0 0 0 0 0 0 0 0 0 0 0 0 0 0 0 0 0 0 0 0 0 0 0 0 0 0 0 0 0 0
0 0 0 0 0 0 0 0 0 0 0 0 0 0 0 0 0 0 0 0 0 0 0 0 0 0 0 0 0 0 0 0 0 0 0 0 0 0 0 0 0 0 0 0 0 0 0 0 0
0 0 0 0 0 0 0 0 0 0 0 0 0 0 0 0 0 0 0 0 0 0 0 0 0 0 0 0 0 0 0 0 0 0 0 0 0 0 0 0 0 0 0 0 0 0 0 0 0
0 0 0 0 0 0 0 0 0 0 0 0 0 0 0 0 0 0 0 0 0 0 0 0 0 0 0 0 0 0 0 0 0 0 0 0 0 0 0 0 0 0 0 0 0 0 0 0 0
0 0 0 0 0 0 0 0 0 0 0 0 0 0 0 0 0 0 0 0 0 0 0 0 0 0 0 0 0 0 0 0 0 0 0 0 0 0 0 0 0 0 0 0 0 0 0 0 0
0 0 0 0 0 0 0 0 0 0 0 0 0 0 0 0 0 0 0 0 0 0 0 0 0 0 0 0 0 0 0 0 0 0 0 0 0 0 0 0 0 0 0 0 0 0 0 0 0
0 0 0 0 0 0 0 0 0 0 0 0 0 0 0 0 0 0 0 0 0 0 0 0 0 0 0 0 0 0 0 0 0 0 0 0 0 0 0 0 0 0 0 0 0 0 0 0 0
0 0 0 0 0 0 0 0 0 0 0 0 0 0 0 0 0 0 0 0 0 0 0 0 0 0 0 0 0 0 0 0 0 0 0 0 0 0 0 0 0 0 0 0 0 0 0 0 0
0 0 0 0 0 0 0 0 0 0 0 0 0 0 0 0 0 0 0 0 0 0 0 0 0 0 0 0 0 0 0 0 0 0 0 0 0 0 0 0 0 0 0 0 0 0 0 0 0
0 0 0 0 0 0 0 0 0 0 0 0 0 0 0 0 0 0 0 0 0 0 0 0 0 0 0 0 0 0 0 0 0 0 0 0 0 0 0 0 0 0 0 0 0 0 0 0 0
0 0 0 0 0 0 0 0 0 0 0 0 0 0 0 0 0 0 0 0 0 0 0 0 0 0 0 0 0 0 0 0 0 0 0 0 0 0 0 0 0 0 0 0 0 0 0 0 0
0 0 0 0 0 0 0 0 0 0 0 0 0 0 0 0 0 0 0 0 0 0 0 0 0 0 0 0 0 0 0 0 0 0 0 0 0 0 0 0 0 0 0 0 0 0 0 0 0
0 0 0 0 0 0 0 0 0 0 0 0 0 0 0 0 0 0 0 0 0 0 0 0 0 0 0 0 0 0 0 0 0 0 0 0 0 0 0 0 0 0 0 0 0 0 0 0 0
0 0 0 0 0 0 0 0 0 0 0 0 0 0 0 0 0 0 0 0 0 0 0 0 0 0 0 0 0 0 0 0 0 0 0 0 0 0 0 0 0 0 0 0 0 0 0 0 0
0 0 0 0 0 0 0 0 0 0 0 0 0 0 0 0 0 0 0 0 0 0 0 0 0 0 0 0 0 0 0 0 0 0 0 0 0 0 0 0 0 0 0 0 0 0 0 0 0
0 0 0 0 0 0 0 0 0 0 0 0 0 0 0 0 0 0 0 0 0 0 0 0 0 0 0 0 0 0 0 0 0 0 0 0 0 0 0 0 0 0 0 0 0 0 0 0 0
Wind_Speed
2 2 3 3 5 4 3 1 1 2 1 1 0 2 4 5 6 5 4 8 8 14 18 20 20 19 17 16 14 13 12 11 10 10 10 9 9 10 10 10 10 10 10 10 11 11 11 11 11
2 3 4 4 5 5 4 1 1 4 2 0 3 4 4 3 2 2 4 8 9 14 17 18 21 20 18 16 15 14 13 12 10 10 9 9 9 9 9 9 9 9 9 9 10 10 10 10 10
3 3 4 5 6 5 2 1 4 4 2 3 3 3 4 3 1 2 4 10 11 14 16 17 21 20 18 17 16 15 13 12 11 10 10 9 8 8 8 8 8 8 8 8 8 9 9 9 9
4 4 4 6 6 3 3 2 4 4 1 3 4 3 3 0 2 4 4 10 12 15 16 17 21 20 19 18 16 15 14 13 12 11 10 9 8 8 8 8 7 7 7 7 7 8 8 8 8
3 4 7 7 6 3 3 3 3 3 1 2 4 4 3 4 2 2 3 10 12 14 15 17 21 20 19 18 17 16 15 14 12 11 10 9 9 8 8 7 7 6 6 6 6 6 6 7 7
3 4 7 8 7 4 4 3 3 4 2 2 4 5 3 5 2 2 4 9 10 13 14 15 20 19 18 18 17 16 15 14 13 12 11 10 9 9 8 7 7 6 5 5 5 5 5 5 5
3 5 7 7 7 7 4 2 4 3 4 3 3 5 3 5 4 2 4 8 9 12 13 13 16 16 18 17 17 16 15 14 13 12 11 10 10 9 8 8 7 6 5 4 3 3 3 3 3
2 4 7 8 8 8 2 3 3 5 5 1 3 6 5 5 4 3 5 7 9 11 13 13 14 14 14 14 15 15 15 14 13 12 11 10 9 9 8 8 8 6 5 4 3 2 2 1 2
3 7 9 8 8 6 3 4 3 3 6 4 5 7 4 3 2 4 6 8 10 11 13 13 14 13 13 12 13 14 13 13 12 11 10 9 8 8 8 8 8 7 6 6 5 4 3 2 2
4 8 10 5 6 6 4 6 6 5 8 9 7 6 2 3 4 7 8 11 13 14 14 13 13 13 12 10 10 9 9 9 10 9 10 8 7 5 5 7 8 7 6 7 6 6 6 6 4
4 7 6 5 5 5 6 7 4 7 10 9 9 9 4 5 7 8 10 10 11 12 13 13 13 12 12 9 8 6 6 6 8 9 9 7 6 5 5 5 6 7 6 6 5 6 5 5 4
5 6 5 4 2 4 6 6 6 9 9 6 7 7 6 6 7 8 9 9 9 11 13 13 14 12 12 10 8 7 6 6 6 7 9 7 5 5 5 5 5 5 5 6 6 5 7 7 8
7 5 4 5 5 7 8 11 10 8 6 4 3 3 4 5 6 6 7 8 9 11 12 13 14 14 12 10 8 8 8 7 8 7 8 9 7 7 7 6 6 7 6 6 7 7 8 9 9
3 5 8 9 9 5 6 5 5 3 1 1 2 3 4 5 5 4 3 6 9 11 11 12 14 14 13 11 9 8 8 8 8 8 9 10 8 8 7 8 7 8 7 8 8 9 9 8 8
3 7 9 5 3 3 4 6 6 1 1 1 3 4 5 6 6 5 3 3 6 8 10 11 12 13 14 13 11 8 7 8 8 8 10 11 11 10 9 8 8 8 9 10 9 10 9 9 9
4 6 5 4 1 2 5 5 5 2 1 1 3 5 6 8 9 8 6 2 3 6 8 9 8 11 12 11 10 7 7 8 8 8 8 11 12 12 10 9 9 9 8 8 9 9 9 10 10
6 6 4 2 2 2 5 6 3 1 2 1 3 5 7 9 11 11 9 7 6 6 7 7 8 9 9 9 8 7 7 7 7 7 7 9 11 12 11 9 10 10 8 8 9 9 10 11 11
4 5 4 5 1 4 8 9 4 2 3 5 6 7 8 10 11 10 10 10 9 7 7 7 7 6 6 6 5 5 6 6 6 7 8 10 9 11 11 9 11 10 8 9 10 11 11 10 10
4 6 8 6 1 5 8 9 5 1 5 8 8 9 9 10 10 10 11 11 10 9 8 7 6 6 5 4 4 4 5 6 6 7 10 10 10 11 10 9 11 10 9 11 12 11 12 11 9
8 9 9 5 2 5 7 8 2 4 6 7 9 9 10 10 11 11 11 11 11 11 9 8 6 6 5 4 3 2 3 3 4 5 7 9 10 11 9 11 10 10 9 12 12 12 9 9 8
9 11 8 5 2 4 6 5 6 6 6 7 7 8 9 9 11 11 11 12 11 11 9 6 6 5 4 4 3 2 2 3 3 4 5 6 8 9 10 11 11 10 10 10 12 11 13 10 9
8 7 7 5 6 3 3 4 8 10 10 9 9 9 10 9 10 10 11 11 11 9 8 8 7 6 4 3 3 3 2 3 3 3 3 5 6 7 9 10 11 11 10 11 11 11 10 12 10
3 3 4 3 5 6 6 7 6 12 15 15 12 11 10 9 10 10 9 9 9 8 7 7 7 6 4 3 1 2 2 3 3 4 5 5 4 5 7 8 9 9 9 11 12 11 12 11 12
6 5 4 2 4 7 5 8 6 11 18 18 15 13 11 10 9 9 9 8 8 7 7 6 7 7 5 3 2 1 3 4 5 5 5 4 3 4 5 6 8 9 9 10 11 11 13 12 14
6 6 5 6 6 4 3 6 6 6 10 16 18 16 13 11 10 10 9 9 8 7 7 6 6 6 5 4 3 2 2 4 5 5 5 5 5 4 5 6 7 8 9 10 10 11 13 14 15
9 7 6 5 3 1 4 7 2 4 4 7 13 15 13 12 10 9 9 8 7 7 6 6 5 5 4 3 3 2 2 3 3 5 5 6 5 6 7 8 8 10 10 10 11 10 12 12 14
8 7 3 3 1 5 5 5 4 4 5 8 12 15 14 12 11 10 9 8 7 6 5 5 4 3 3 2 2 3 3 4 5 6 6 6 6 6 9 9 10 11 11 12 12 11 13 13 14
2 5 5 6 5 6 5 6 4 8 9 11 14 16 15 13 11 10 9 7 6 5 4 4 3 2 2 3 3 3 4 5 5 6 7 8 9 9 10 11 11 12 12 13 13 12 13 14 14
7 6 5 4 4 5 5 3 1 4 8 11 14 15 15 14 12 10 8 7 6 5 4 3 2 2 2 3 4 4 5 6 7 7 8 9 9 10 11 12 12 13 13 14 13 14 15 16 16
7 8 9 7 6 5 5 4 4 3 5 8 11 12 12 11 10 9 8 7 6 4 3 2 1 2 3 4 5 5 6 7 8 9 9 10 11 11 12 12 13 14 14 14 15 16 16 16 17
Wind_Direction
222 236 229 226 223 228 226 132 324 345 297 46 302 257 310 339 345 8 69 152 147 158 164 170 170 168 168 167 163 159 154 151 146 139 130 123 118 112 105 98 92 87 82 79 75 73 72 71 70
227 218 217 224 237 221 180 153 331 349 3 188 208 229 256 285 299 349 113 155 161 162 166 170 169 170 170 169 166 163 159 158 153 147 139 132 125 118 109 102 97 91 86 82 79 76 75 73 71
190 239 222 213 232 238 175 93 357 349 296 237 215 229 286 326 157 63 71 157 165 166 171 168 170 172 173 172 169 167 164 163 159 152 147 142 136 127 118 110 103 97 91 86 82 80 78 76 73
207 201 214 229 219 226 267 335 346 324 178 217 250 239 226 17 27 47 94 163 169 169 173 168 173 174 175 175 173 171 170 169 166 161 157 153 146 137 129 120 112 105 99 91 84 82 81 80 76
227 215 211 222 226 225 263 321 312 301 237 192 242 273 274 114 78 58 141 170 174 170 173 170 176 177 177 178 176 175 175 174 172 169 167 164 157 147 140 132 126 120 110 101 91 83 80 81 79
199 220 226 228 232 245 262 255 255 266 249 216 238 270 283 107 99 77 156 176 178 172 174 171 178 180 181 181 180 180 180 179 178 176 174 172 167 160 154 150 146 138 128 116 105 92 80 77 79
229 228 244 251 256 260 268 213 248 270 262 251 240 271 263 128 68 89 160 174 178 176 178 176 179 183 185 186 185 184 184 184 184 182 181 179 176 173 170 166 162 157 150 140 125 110 94 79 77
281 240 242 249 259 270 246 205 245 269 290 359 235 263 288 83 80 125 152 173 180 182 185 183 182 184 186 188 189 189 188 189 189 188 186 184 183 185 181 181 177 177 175 172 167 156 136 94 67
244 244 249 254 261 272 208 234 246 249 266 238 235 272 355 78 139 166 171 182 187 190 193 191 188 186 187 190 187 189 191 193 194 192 186 188 197 194 190 190 183 193 197 199 203 204 204 202 195
227 247 255 260 256 271 258 264 283 256 256 257 249 244 223 216 216 216 210 200 195 194 195 194 194 188 188 188 188 193 193 195 201 201 194 199 202 199 199 165 193 207 213 216 221 222 221 227 227
231 253 267 250 250 269 271 271 260 264 272 282 292 302 286 251 239 238 233 221 208 198 194 198 196 193 191 188 193 192 192 196 204 206 199 196 198 196 205 199 197 209 214 223 213 224 230 238 245
244 253 260 266 223 246 266 275 264 255 279 323 310 307 297 274 260 248 242 230 211 202 198 199 197 196 199 195 195 196 194 196 201 204 204 200 202 212 213 220 220 220 220 229 233 240 240 246 247
243 264 255 254 253 261 266 264 274 269 297 313 308 309 314 308 295 272 253 236 215 205 200 200 200 199 199 203 201 202 204 202 200 200 204 209 212 219 220 227 227 231 234 233 239 244 248 249 252
271 267 273 275 267 244 249 258 233 244 21 5 19 14 359 350 337 317 254 228 215 207 200 196 200 201 201 205 207 208 210 208 213 208 212 215 222 226 227 234 235 238 239 243 247 250 254 254 253
264 277 275 244 229 206 236 245 207 128 271 8 50 50 37 25 16 6 339 243 215 203 197 194 198 202 204 209 213 217 216 216 217 218 221 220 227 232 234 240 241 242 243 245 248 255 258 260 260
236 250 247 163 208 180 244 258 139 93 316 19 58 64 56 47 39 33 31 59 155 173 181 184 188 202 206 210 214 218 223 225 226 227 228 229 233 236 239 243 246 248 247 246 247 252 253 255 257
223 243 242 200 166 223 250 267 158 339 292 160 104 86 72 62 47 42 48 67 94 129 149 166 181 194 201 209 215 223 228 232 236 235 236 237 239 239 241 246 251 252 247 247 250 252 254 260 262
236 238 247 256 177 265 262 265 283 318 223 155 125 107 86 67 51 48 57 70 82 98 118 139 158 176 181 192 207 218 232 238 240 241 241 243 241 241 244 249 253 254 248 248 249 253 256 259 269
264 257 265 273 307 273 265 276 295 279 166 148 133 117 98 82 73 68 70 76 83 89 99 114 134 150 162 170 188 208 225 231 236 240 246 246 246 244 242 248 253 249 247 251 255 256 259 260 262
235 251 262 265 194 267 284 282 260 157 153 144 136 122 112 105 91 79 78 78 78 82 89 100 115 136 157 170 183 213 244 254 260 254 253 252 250 249 246 247 251 251 250 254 256 255 256 258 248
227 241 257 269 253 220 282 236 166 151 144 140 137 127 119 111 104 95 86 81 80 76 77 87 98 118 143 163 178 192 227 246 244 252 258 260 258 255 251 252 255 255 253 255 255 252 248 252 252
243 235 240 242 263 250 273 261 175 170 170 166 157 147 133 124 113 105 97 88 81 79 82 86 92 101 118 154 189 218 254 280 303 305 290 284 270 263 258 256 257 257 254 255 255 252 250 250 254
220 107 173 222 250 268 222 249 187 176 188 182 171 159 146 136 125 115 105 99 92 89 87 89 92 92 100 123 163 251 280 302 310 308 298 296 286 272 265 262 260 258 256 257 258 256 251 245 246
140 130 118 173 227 247 211 228 213 190 199 184 175 169 160 150 139 126 119 115 106 99 93 93 93 89 89 95 95 333 322 318 318 318 317 311 302 287 274 268 263 261 259 259 258 257 254 250 249
187 208 224 214 212 230 144 237 252 178 195 190 180 175 169 161 155 147 141 132 120 109 100 98 94 89 84 82 70 39 345 324 319 321 318 314 308 301 298 282 272 267 262 262 262 260 258 254 252
196 225 246 266 260 203 188 241 242 123 165 198 188 176 171 170 165 158 149 140 129 119 111 103 94 87 76 64 50 24 350 320 319 315 309 305 302 302 303 293 281 276 272 268 263 262 259 258 256
176 209 268 279 286 270 239 254 256 166 191 192 188 180 179 176 171 164 156 147 138 128 116 104 97 84 64 39 11 351 335 320 314 307 300 297 295 298 296 292 286 282 277 273 271 265 265 263 260
275 158 171 214 241 250 248 245 233 188 191 182 184 185 181 176 172 167 161 153 142 131 121 108 88 62 34 4 355 329 321 317 308 302 300 299 299 297 294 293 290 286 283 278 274 272 270 269 266
165 183 207 206 257 260 262 244 170 202 185 184 185 184 179 177 174 170 163 154 146 139 130 109 79 38 2 345 332 320 319 314 307 301 301 301 299 298 295 294 292 289 287 284 280 275 275 273 272
222 210 196 217 218 234 270 273 105 206 193 189 181 177 175 173 170 167 161 158 155 146 129 97 42 357 342 331 321 317 313 308 303 302 303 302 299 297 295 294 290 288 286 284 282 280 278 275 274